Water Levels and Discharges  |  Reservoirs  |  Precipitation  |  Water quality Last site revision 09.05.2026 10:12
       
Water Levels and Discharges All data are without validation 09.05.2026 10:14:25
Labská
River: Labe
Crest of dam elevation: 694,16 [m asl]
Spillway elevation: 691,26 [m asl]
Maximum flood control capacity level: 692,36 [m asl]
Usable storage capacity level: 684,62 [m asl]
Ineffective storage level: 678,66 [m asl]
Vertical coordinate system: Balt p.v.
Remark:
Schema:
Go to balance data (monthly series)
Graf
Date Water level [m. n. m.] Outflow [m3s-1] QN
09.05.2026 10:00 678,65 3,17
09.05.2026 09:00 678,66 3,18
09.05.2026 08:00 678,68 3,18
09.05.2026 07:00 678,69 3,19
09.05.2026 06:00 678,71 3,19
09.05.2026 05:00 678,72
09.05.2026 04:00 678,73 3,19
09.05.2026 03:00 678,74 3,19
09.05.2026 02:00 678,74 3,20
09.05.2026 01:00 678,74 3,19
09.05.2026 00:00 678,74 3,19
08.05.2026 23:00 678,74 3,19
08.05.2026 22:00 678,74 3,19
08.05.2026 21:00 678,74 3,19
08.05.2026 20:00 678,74 3,19
08.05.2026 19:00 678,74
08.05.2026 18:00 678,74 3,19
08.05.2026 17:00 678,74 3,19
08.05.2026 16:00 678,74 3,18
08.05.2026 15:00 678,75 3,01
08.05.2026 14:00 678,75 3,04
08.05.2026 13:00 678,76 3,04
08.05.2026 12:00 678,78 3,04
08.05.2026 11:00 678,79 3,04
08.05.2026 07:00 678,96 3,88
07.05.2026 07:00 678,95 2,91
06.05.2026 07:00 678,59 2,78
05.05.2026 07:00 679,19 2,80
04.05.2026 07:00 679,84 2,33
03.05.2026 07:00 680,14 2,36
This information is also available through the application for mobile phones with Android OS (only in the Czech language)  Reservoir levels
  Povodí Labe, státní podnik © 2026 The system uses also data from measuring stations of   Czech Hydrometeorological Institute © 2026 Application developed by   MGE Data s.r.o. © 1996 - 2024